Погода в Энглинг-Лейк

Канада     53°50′37″N   89°31′51″W
темп.,
°C
ветер,
м/с
пор.,
м/с
влажн.,
%
обл.,
%
осадки,
мм/ч
давл.,
гПа
погр.,
м
9 мая, вс
вс923:00−1ссз399894 0.2 1023412
02:00−1с3797100 0.4 1024612
05:00−3с389797 0.3 1024435
08:00−2с4893100 0.4 1025453
11:00−2с4789100 0.1 1026686
14:000ссз4784100 0.1 1026911
17:00+2с4778100 0.1 10261076
20:00+1с4891100 0.2 1027645
10 мая, пн
пн1023:000с3897100 0.1 1027454
02:00−1с2698100 0.2 1027333
05:00−2с2598100 0.0 1028272
08:00−1с359192 0.2 1029444
11:00+2ссз237298 0.1 10281063
14:00+3ссз126698 0.1 10281080
17:00+6з126093 0.0 10271239
20:00+4юз127628 0.0 102792
11 мая, вт
вт1123:00−2ю239572 0.0 102742
02:00−2ююз2693100 0.0 102792
05:00−2юз2793100 0.0 1027134
08:00+1юз278496 0.0 1026177
11:00+7зюз35655 0.0 1025406
14:00+11з35535 0.0 1024873
17:00+13з365054 0.0 10231047
20:00+9зюз23745 0.0 102362
12 мая, ср
ср1223:00+4юз22835 0.0 102319
02:00+2юз34845 0.0 102347
05:00+2юз378256 0.0 102397
08:00+5з27735 0.0 1024138
11:00+11з35545 0.0 1023306
14:00+16з35415 0.0 1022817
17:00+18з25335 0.0 10211776
20:00+16ю114622 0.0 102017
13 мая, чт
чт1323:00+10ююв22612 0.0 102020
02:00+7ююв386995 0.0 1020123
05:00+6ююв127330 0.0 101913
08:00+8зюз286695 0.0 1019200
11:00+14з364981 0.0 1018494
14:00+19з353650 0.0 10161536
17:00+18юз2442100 0.2 1015864
20:00+12з51271100 0.6 1015461